Rochester/St. Mary\'s Hospita, MN

9:45 PM CST on December 11, 2019 (GMT -0600)
Rochester/St. Mary\'s Hospita

Weather History for K9MN - November, 2019

Change the Weather History Date:

Monday, November 11, 2019

  Actual Average (KRST) Record (KRST)
Temperature  
Mean Temperature 12 °F -  
Max Temperature 18 °F 40 °F 66 °F (1912)
Min Temperature 7 °F 24 °F -6 °F (1986)
Degree Days  
Heating Degree Days 52    
Moisture  
Dew Point 0 °F    
Average Humidity 55    
Maximum Humidity 74    
Minimum Humidity 41    
Precipitation  
Precipitation 0.00 in - - ()
Sea Level Pressure  
Sea Level Pressure 30.47 in    
Wind  
Wind Speed 11 mph ()    
Max Wind Speed 23 mph    
Max Gust Speed 31 mph    
Visibility 9.9 miles    
Events      
Averages and records for this station are not official NWS values.
T = Trace of Precipitation, MM = Missing Value Source: Averaged Metar Reports

Daily Weather History Graph

Daily Weather History Graph

Search for Another Location

Airport or City:

Astronomy

Nov. 11, 2019 Rise Set
Actual Time 6:59 AM CST 4:47 PM CST
Civil Twilight 6:28 AM CST 5:18 PM CST
Nautical Twilight 5:53 AM CST 5:53 PM CST
Astronomical Twilight 5:19 AM CST 6:27 PM CST
Moon 4:46 PM CST (11/11) 5:46 AM CST (11/11)
Length of Visible Light 10h 50m
Length of Day
9h 48m
Waxing Gibbous, 99% of the Moon is Illuminated
Nov 11
Waxing Gibbous
Nov 12
Full
Nov 19
Last Quarter
Nov 26
New
Dec 4
First Quarter

Hourly Weather History & Observations

Time (CST) Temp. Windchill Dew Point Humidity Pressure Visibility Wind Dir Wind Speed Gust Speed Precip Events Conditions
12:15 AM 18.7 °F 6.3 °F 4.8 °F 55% 30.34 in 10.0 mi NNW 11.5 mph 20.7 mph N/A   Scattered Clouds
12:35 AM 18.5 °F 9.3 °F 4.8 °F 55% 30.33 in 10.0 mi NNW 6.9 mph 19.6 mph N/A   Clear
12:36 AM 18.5 °F 9.3 °F 5.0 °F 56% 30.33 in 10.0 mi North 6.9 mph 19.6 mph N/A   Clear
12:55 AM 18.1 °F 6.3 °F 4.8 °F 56% 30.33 in 10.0 mi NNW 10.4 mph 18.4 mph N/A   Clear
12:56 AM 18.1 °F 5.6 °F 4.8 °F 56% 30.33 in 10.0 mi North 11.5 mph 18.4 mph N/A   Clear
1:15 AM 18.1 °F 6.3 °F 5.7 °F 58% 30.36 in 10.0 mi NNW 10.4 mph 18.4 mph N/A   Clear
1:35 AM 17.6 °F 3.7 °F 5.2 °F 58% 30.36 in 10.0 mi North 13.8 mph 19.6 mph N/A   Clear
2:03 AM 17.6 °F 7.3 °F 5.0 °F 58% 30.37 in 10.0 mi North 8.1 mph 16.1 mph N/A   Overcast
2:15 AM 17.4 °F 7.1 °F 5.4 °F 59% 30.37 in 10.0 mi NW 8.1 mph 16.1 mph N/A   Overcast
2:16 AM 17.4 °F 7.1 °F 5.4 °F 59% 30.38 in 10.0 mi NW 8.1 mph - N/A   Overcast
2:35 AM 17.1 °F 6.6 °F 5.2 °F 60% 30.39 in 10.0 mi NNW 8.1 mph 17.3 mph N/A   Overcast
2:36 AM 17.1 °F 4.3 °F 5.2 °F 60% 30.39 in 10.0 mi North 11.5 mph 17.3 mph N/A   Overcast
2:55 AM 16.7 °F 3.8 °F 4.6 °F 59% 30.39 in 10.0 mi NNW 11.5 mph 20.7 mph N/A   Overcast
3:15 AM 16.7 °F 3.2 °F 4.8 °F 60% 30.39 in 10.0 mi NNW 12.7 mph 20.7 mph N/A   Overcast
3:35 AM 16.2 °F 7.6 °F 4.1 °F 59% 30.40 in 10.0 mi North 5.8 mph 19.6 mph N/A   Overcast
3:36 AM 16.2 °F 5.5 °F 4.1 °F 59% 30.40 in 10.0 mi North 8.1 mph 19.6 mph N/A   Overcast
3:55 AM 16.2 °F 6.5 °F 4.3 °F 60% 30.39 in 10.0 mi NW 6.9 mph 18.4 mph N/A   Overcast
3:56 AM 16.0 °F 6.3 °F 4.3 °F 60% 30.39 in 10.0 mi NW 6.9 mph 18.4 mph N/A   Overcast
4:15 AM 15.8 °F 4.2 °F 3.6 °F 59% 30.40 in 10.0 mi NW 9.2 mph 19.6 mph N/A   Overcast
4:35 AM 15.3 °F 0.8 °F 2.8 °F 58% 30.41 in 10.0 mi NW 13.8 mph 23.0 mph N/A   Overcast
4:55 AM 14.9 °F 3.1 °F 1.8 °F 56% 30.42 in 10.0 mi NW 9.2 mph 19.6 mph N/A   Overcast
4:56 AM 14.9 °F 4.0 °F 1.8 °F 56% 30.42 in 10.0 mi NW 8.1 mph 19.6 mph N/A   Overcast
5:15 AM 14.9 °F 0.3 °F 1.4 °F 55% 30.43 in 10.0 mi NW 13.8 mph 23.0 mph N/A   Overcast
5:16 AM 14.9 °F 0.9 °F 1.4 °F 55% 30.43 in 10.0 mi NW 12.7 mph 23.0 mph N/A   Overcast
5:35 AM 14.7 °F 2.9 °F 1.4 °F 56% 30.44 in 10.0 mi NW 9.2 mph 17.3 mph N/A   Overcast
5:55 AM 14.4 °F 3.3 °F 0.5 °F 54% 30.45 in 10.0 mi NW 8.1 mph 20.7 mph N/A   Overcast
6:15 AM 14.5 °F 2.7 °F 0.5 °F 54% 30.45 in 10.0 mi NNW 9.2 mph 17.3 mph N/A   Overcast
6:16 AM 14.5 °F 3.6 °F 0.5 °F 54% 30.45 in 10.0 mi NW 8.1 mph 17.3 mph N/A   Mostly Cloudy
6:35 AM 14.7 °F 3.8 °F 0.9 °F 54% 30.46 in 10.0 mi NNW 8.1 mph - N/A   Mostly Cloudy
6:36 AM 14.7 °F 2.9 °F 0.9 °F 54% 30.46 in 10.0 mi NW 9.2 mph - N/A   Mostly Cloudy
6:55 AM 14.0 °F 1.2 °F 0.5 °F 55% 30.46 in 10.0 mi NNW 10.4 mph 18.4 mph N/A   Scattered Clouds
7:15 AM 14.2 °F 1.4 °F -0.0 °F 53% 30.47 in 10.0 mi North 10.4 mph 17.3 mph N/A   Clear
7:35 AM 14.5 °F 1.1 °F 0.3 °F 53% 30.48 in 10.0 mi North 11.5 mph 16.1 mph N/A   Clear
7:36 AM 14.4 °F 1.6 °F 0.3 °F 54% 30.48 in 10.0 mi North 10.4 mph 16.1 mph N/A   Scattered Clouds
7:55 AM 14.5 °F 2.7 °F 1.0 °F 55% 30.48 in 10.0 mi NNW 9.2 mph - N/A   Mostly Cloudy
7:56 AM 14.5 °F 1.9 °F 1.0 °F 55% 30.48 in 10.0 mi NNW 10.4 mph - N/A   Mostly Cloudy
8:15 AM 14.9 °F 4.0 °F 1.9 °F 57% 30.49 in 10.0 mi NW 8.1 mph - N/A   Overcast
8:35 AM 15.4 °F 6.8 °F 2.8 °F 58% 30.49 in 10.0 mi NNW 5.8 mph - N/A   Overcast
8:55 AM 16.0 °F 5.3 °F 3.2 °F 57% 30.49 in 10.0 mi NW 8.1 mph - N/A   Overcast
9:15 AM 15.8 °F 2.7 °F 3.4 °F 58% 30.48 in 10.0 mi WNW 11.5 mph 17.3 mph N/A   Overcast
9:16 AM 15.8 °F 1.4 °F 3.4 °F 58% 30.48 in 10.0 mi NW 13.8 mph 17.3 mph N/A   Overcast
9:35 AM 15.8 °F 5.1 °F 5.5 °F 64% 30.48 in 7.0 mi North 8.1 mph 16.1 mph N/A   Overcast
9:55 AM 15.4 °F 1.6 °F 8.6 °F 74% 30.49 in 1.2 mi NW 12.7 mph 18.4 mph N/A   Overcast
10:35 AM 15.6 °F -0.9 °F 5.4 °F 64% 30.48 in 10.0 mi NW 18.4 mph 23.0 mph N/A   Overcast
10:36 AM 15.4 °F -0.1 °F 5.2 °F 64% 30.48 in 10.0 mi WNW 16.1 mph 23.0 mph N/A   Overcast
10:55 AM 15.4 °F -0.6 °F 4.1 °F 61% 30.48 in 10.0 mi NW 17.3 mph 23.0 mph N/A   Overcast
10:56 AM 15.4 °F -1.6 °F 4.1 °F 61% 30.48 in 10.0 mi WNW 19.6 mph 24.2 mph N/A   Overcast
11:35 AM 14.4 °F -2.5 °F 2.8 °F 60% 30.48 in 10.0 mi WNW 18.4 mph 24.2 mph N/A   Overcast
11:55 AM 14.5 °F 1.1 °F 2.1 °F 58% 30.48 in 10.0 mi WNW 11.5 mph 21.9 mph N/A   Overcast
11:56 AM 14.5 °F 1.1 °F 2.3 °F 58% 30.48 in 10.0 mi WNW 11.5 mph 21.9 mph N/A   Overcast
12:35 PM 15.8 °F 2.7 °F -2.4 °F 45% 30.46 in 10.0 mi WNW 11.5 mph 27.6 mph N/A   Mostly Cloudy
12:55 PM 16.2 °F 1.3 °F -2.0 °F 45% 30.45 in 10.0 mi WNW 15.0 mph 25.3 mph N/A   Mostly Cloudy
12:56 PM 16.3 °F 2.1 °F -2.0 °F 44% 30.45 in 10.0 mi NW 13.8 mph 24.2 mph N/A   Mostly Cloudy
1:15 PM 16.0 °F 0.6 °F -2.2 °F 45% 30.45 in 10.0 mi WNW 16.1 mph 31.1 mph N/A   Mostly Cloudy
1:16 PM 16.0 °F 1.7 °F -2.2 °F 45% 30.45 in 10.0 mi WNW 13.8 mph 31.1 mph N/A   Mostly Cloudy
1:35 PM 15.4 °F -2.4 °F -3.8 °F 42% 30.45 in 10.0 mi WNW 21.9 mph 28.8 mph N/A   Mostly Cloudy
1:55 PM 15.6 °F 0.6 °F -2.7 °F 44% 30.45 in 10.0 mi WNW 15.0 mph 31.1 mph N/A   Scattered Clouds
2:15 PM 15.4 °F -2.4 °F -4.0 °F 42% 30.45 in 10.0 mi WNW 21.9 mph 31.1 mph N/A   Scattered Clouds
2:16 PM 15.3 °F -3.0 °F -4.0 °F 42% 30.45 in 10.0 mi WNW 23.0 mph 31.1 mph N/A   Scattered Clouds
2:35 PM 15.3 °F -1.3 °F -3.5 °F 44% 30.45 in 10.0 mi WNW 18.4 mph 28.8 mph N/A   Scattered Clouds
2:55 PM 15.8 °F -0.6 °F -4.0 °F 41% 30.45 in 10.0 mi WNW 18.4 mph 26.5 mph N/A   Mostly Cloudy
3:15 PM 15.3 °F 1.4 °F -3.6 °F 43% 30.46 in 10.0 mi NW 12.7 mph 31.1 mph N/A   Overcast
3:35 PM 14.5 °F -3.6 °F -4.7 °F 42% 30.45 in 10.0 mi WNW 21.9 mph 31.1 mph N/A   Mostly Cloudy
3:55 PM 14.2 °F -0.6 °F -3.6 °F 45% 30.47 in 10.0 mi NW 13.8 mph 28.8 mph N/A   Scattered Clouds
4:15 PM 13.6 °F -3.5 °F -3.5 °F 47% 30.47 in 10.0 mi WNW 18.4 mph 27.6 mph N/A   Mostly Cloudy
4:16 PM 13.6 °F -3.0 °F -3.5 °F 47% 30.47 in 10.0 mi WNW 17.3 mph 27.6 mph N/A   Mostly Cloudy
4:35 PM 12.9 °F -4.4 °F -4.2 °F 47% 30.48 in 10.0 mi WNW 18.4 mph 29.9 mph N/A   Scattered Clouds
4:36 PM 12.9 °F -4.4 °F -4.0 °F 47% 30.48 in 10.0 mi WNW 18.4 mph 29.9 mph N/A   Scattered Clouds
4:55 PM 12.7 °F -4.1 °F -4.2 °F 47% 30.48 in 10.0 mi WNW 17.3 mph 26.5 mph N/A   Scattered Clouds
5:15 PM 12.6 °F -4.4 °F -4.2 °F 47% 30.49 in 10.0 mi WNW 17.3 mph 27.6 mph N/A   Mostly Cloudy
5:35 PM 12.0 °F -4.0 °F -3.8 °F 49% 30.49 in 10.0 mi NW 15.0 mph 27.6 mph N/A   Scattered Clouds
5:36 PM 12.0 °F -4.5 °F -4.0 °F 49% 30.49 in 10.0 mi NW 16.1 mph 27.6 mph N/A   Scattered Clouds
5:55 PM 11.7 °F -2.5 °F -4.0 °F 50% 30.50 in 10.0 mi WNW 11.5 mph 25.3 mph N/A   Clear
6:15 PM 11.3 °F -6.0 °F -2.6 °F 54% 30.51 in 10.0 mi WNW 17.3 mph 24.2 mph N/A   Clear
6:35 PM 11.3 °F -3.6 °F -2.6 °F 54% 30.52 in 10.0 mi NW 12.7 mph 19.6 mph N/A   Mostly Cloudy
6:36 PM 11.3 °F -2.2 °F -2.6 °F 54% 30.52 in 10.0 mi NW 10.4 mph 19.6 mph N/A   Scattered Clouds
6:55 PM 10.8 °F -4.3 °F -4.5 °F 50% 30.52 in 10.0 mi WNW 12.7 mph 25.3 mph N/A   Scattered Clouds
6:56 PM 10.8 °F -5.0 °F -4.4 °F 51% 30.52 in 10.0 mi WNW 13.8 mph 25.3 mph N/A   Scattered Clouds
7:15 PM 10.4 °F -6.6 °F -3.3 °F 54% 30.53 in 10.0 mi WNW 16.1 mph 20.7 mph N/A   Clear
7:35 PM 10.2 °F -6.3 °F -3.3 °F 55% 30.53 in 10.0 mi NW 15.0 mph 23.0 mph N/A   Scattered Clouds
7:55 PM 10.0 °F -6.5 °F -3.8 °F 54% 30.53 in 10.0 mi NW 15.0 mph 25.3 mph N/A   Scattered Clouds
7:56 PM 10.0 °F -5.9 °F -3.8 °F 54% 30.53 in 10.0 mi NW 13.8 mph 25.3 mph N/A   Scattered Clouds
8:15 PM 9.9 °F -4.7 °F -3.1 °F 56% 30.53 in 10.0 mi WNW 11.5 mph 19.6 mph N/A   Scattered Clouds
8:16 PM 9.9 °F -6.1 °F -3.1 °F 56% 30.53 in 10.0 mi WNW 13.8 mph 19.6 mph N/A   Scattered Clouds
8:35 PM 9.3 °F -6.8 °F -1.8 °F 61% 30.54 in 10.0 mi NW 13.8 mph 21.9 mph N/A   Mostly Cloudy
8:55 PM 9.0 °F -7.3 °F -1.7 °F 62% 30.54 in 10.0 mi NW 13.8 mph 19.6 mph N/A   Mostly Cloudy
9:15 PM 9.3 °F -4.6 °F -2.0 °F 60% 30.55 in 10.0 mi WNW 10.4 mph - N/A   Mostly Cloudy
9:16 PM 9.3 °F -4.6 °F -2.2 °F 60% 30.55 in 10.0 mi WNW 10.4 mph - N/A   Mostly Cloudy
9:35 PM 8.6 °F -7.7 °F -4.0 °F 57% 30.55 in 10.0 mi NW 13.8 mph 19.6 mph N/A   Scattered Clouds
9:55 PM 8.6 °F -7.0 °F -4.0 °F 57% 30.55 in 10.0 mi NW 12.7 mph 18.4 mph N/A   Scattered Clouds
10:15 PM 8.2 °F -6.0 °F -4.0 °F 58% 30.56 in 10.0 mi NW 10.4 mph 16.1 mph N/A   Clear
10:35 PM 8.1 °F -7.0 °F -3.3 °F 60% 30.56 in 10.0 mi WNW 11.5 mph - N/A   Clear
10:36 PM 8.1 °F -7.0 °F -3.3 °F 60% 30.56 in 10.0 mi NW 11.5 mph - N/A   Clear
10:55 PM 8.1 °F -5.3 °F -2.6 °F 62% 30.56 in 10.0 mi NW 9.2 mph - N/A   Clear
11:15 PM 7.7 °F -5.8 °F -2.6 °F 63% 30.56 in 10.0 mi WNW 9.2 mph - N/A   Clear
11:35 PM 7.7 °F -4.8 °F -2.4 °F 63% 30.56 in 10.0 mi WNW 8.1 mph - N/A   Clear
11:36 PM 7.7 °F -4.8 °F -2.2 °F 64% 30.56 in 10.0 mi WNW 8.1 mph - N/A   Clear
11:55 PM 7.5 °F -5.0 °F -2.2 °F 65% 30.56 in 10.0 mi WNW 8.1 mph - N/A   Clear